Regional Weather Roundup
Issued by NWS

Home | Current Version | Previous Version | Text Only | Print | Product List | Glossary Off
Versions: 1 2 3 4 5 6 7 8 9 10 11 12 13 14 15 16 17 18 19 20 21 22 23 24 25 26 27 28 29 30 31 32 33 34 35 36 37 38 39 40 41 42 43 44 45 46 47 48 49 50

000
ASUS43 KIND 291809
RWRIN

WEATHER ROUNDUP FOR INDIANA
NATIONAL WEATHER SERVICE INDIANAPOLIS IN
200 PM EDT FRI MAY 29 2015

NOTE: "FAIR" INDICATES FEW OR NO CLOUDS BELOW 12,000 FEET WITH NO
SIGNIFICANT WEATHER AND/OR OBSTRUCTIONS TO VISIBILITY.

* - STATION DOES NOT REPORT WEATHER SUCH AS PRECIPITATION OR FOG.

+ - STATION NOT QUALITY CONTROLLED BY THE NATIONAL WEATHER SERVICE.
    USE DATA WITH CAUTION...ESPECIALLY DEWPOINT AND RELATIVE
    HUMIDITY OBSERVATIONS.

INZ001>003-010>013-019-020-291900-
NORTHWEST INDIANA

CITY           SKY/WX    TMP DP  RH WIND       PRES   REMARKS
GARY /AIRPORT/ PTSUNNY   77  70  78 W9        30.03R
KNOX *+        PTSUNNY   82  61  47 S18G24    30.02F
LA PORTE +     MOSUNNY   81  65  57 S15G23    30.04S
6HR MIN TEMP:  69; 6HR MAX TEMP:  84;

MICHIGAN CITY+ PTSUNNY   79  63  57 S9        30.02F
MONTICELLO +   PTSUNNY   82  67  59 S12G22    30.04F HAZE
6HR MIN TEMP:  67; 6HR MAX TEMP:  82;

RENSSELAER +   PTSUNNY   79  64  61 S23G31    30.05S
VALPARAISO     LGT RAIN  73  71  93 W3        30.03F FOG
6HR MIN TEMP:  68; 6HR MAX TEMP:  83; 6HR PCP:  0.28;


$$

LMZ046-743>745-291900-
SOUTHERN LAKE MICHIGAN

STATION/POSITION TIME  TEMP    WIND        PRES    WAVE
                       AIR SEA DIR/SP/G            HT
                 (UTC) (F)     (DEG/KT/KT) (MB)    (FT)
BURNS HARBOR     1800   78     190/ 15/ 21 1016.6S
MICHIGAN CITY    1800   78     170/ 13/ 18   N/A
5NW MICH CITY    1800   70 56  210/ 12/ 16   N/A     1

$$

INZ004-005-014>016-021>024-291900-
NORTH CENTRAL INDIANA

CITY           SKY/WX    TMP DP  RH WIND       PRES   REMARKS
ELKHART        PTSUNNY   81  63  54 S9        30.05
GOSHEN         MOSUNNY   83  65  54 S15       30.06F
6HR MIN TEMP:  66; 6HR MAX TEMP:  83;

LOGANSPORT +   PTSUNNY   82  59  44 S9G18     30.06F
PERU/GRISSOM   PTSUNNY   83  65  54 S14G21    30.06F
6HR MIN TEMP:  67; 6HR MAX TEMP:  83;

ROCHESTER +    MOSUNNY   82  66  57 S10G16    30.07F
SOUTH BEND     PTSUNNY   82  63  52 S16       30.04F
6HR MIN TEMP:  69; 6HR MAX TEMP:  83;

WARSAW +       MOSUNNY   81  64  57 S8        30.07F

$$

INZ006>009-017-018-025>027-291900-
NORTHEAST INDIANA

CITY           SKY/WX    TMP DP  RH WIND       PRES   REMARKS
ANGOLA *+      MOSUNNY   84  79  84 S10       30.08F HX  96
AUBURN +       MOSUNNY   81  61  50 S3        30.10F
FORT WAYNE     PTSUNNY   82  65  56 SW8       30.09F
6HR MIN TEMP:  66; 6HR MAX TEMP:  82;

HUNTINGTON +   PTSUNNY   80  64  57 SW7       30.08F
6HR MIN TEMP:  66; 6HR MAX TEMP:  81;


$$

INZ028-029-035-036-043>045-051>053-291900-
WEST CENTRAL INDIANA

CITY           SKY/WX    TMP DP  RH WIND       PRES   REMARKS
CRAWFORDSVL +  PTSUNNY   82  56  41 S13G18    30.07F
6HR MIN TEMP:  66; 6HR MAX TEMP:  82;

GREENCASTLE +  PTSUNNY   77  61  57 S10       30.09F
LAFAYETTE      PTSUNNY   80  63  55 SW9G20    30.04F
6HR MIN TEMP:  68; 6HR MAX TEMP:  82;

TERRE HAUTE    MOSUNNY   84  66  54 S14       30.07F
6HR MIN TEMP:  69; 6HR MAX TEMP:  84;


$$

INZ030>032-037>040-046>048-054>057-064-065-291900-
CENTRAL INDIANA

CITY           SKY/WX    TMP DP  RH WIND       PRES   REMARKS
CP ATTERBURY + MOSUNNY   79  68  69 S9        30.11F
COLUMBUS       PTSUNNY   81  63  54 SW13      30.12F
FRANKFORT +    MOSUNNY   83  64  52 S10       30.08F
6HR MIN TEMP:  68; 6HR MAX TEMP:  84;

GREENWOOD *+   MOSUNNY   82  61  47 S18G24    30.10F
INDIANAPOLIS   PTSUNNY   80  65  59 S18       30.08F
6HR MIN TEMP:  67; 6HR MAX TEMP:  83; 6HR PCP: TRACE;

-EAGLE CREEK   PTSUNNY   82  66  58 SW12G18   30.08F
6HR MIN TEMP:  68; 6HR MAX TEMP:  82;

KOKOMO *+      PTSUNNY   84  64  51 S14G20    30.06F
6HR MIN TEMP:  66; 6HR MAX TEMP:  84;

MARION +       PTSUNNY   83  59  44 S10       30.09F
MT COMFORT *+  MOSUNNY   81  63  54 S10       30.10F
SHELBYVILLE    MOSUNNY   85  65  51 S20G26    30.09F
6HR MIN TEMP:  70; 6HR MAX TEMP:  85;

ZIONSVILLE +   CLOUDY    83  62  49 S15       30.09F
6HR MIN TEMP:  67; 6HR MAX TEMP:  83;


$$

INZ033-034-041-042-049-050-058-059-291900-
EAST CENTRAL INDIANA

CITY           SKY/WX    TMP DP  RH WIND       PRES   REMARKS
MUNCIE         PTSUNNY   83  64  52 S12G22    30.10F
6HR MIN TEMP:  69; 6HR MAX TEMP:  84;


$$

INZ060-061-067>069-081>083-085>088-291900-
SOUTHWEST INDIANA

CITY           SKY/WX    TMP DP  RH WIND       PRES   REMARKS
EVANSVILLE     MOSUNNY   80  67  64 S7        30.10F
6HR MIN TEMP:  70; 6HR MAX TEMP:  80; 6HR PCP: TRACE;

HUNTINGBURG *+ CLOUDY    79  70  73 S10       30.12F
WASHINGTON +   MOSUNNY   79  65  62 S15       30.10F
6HR MIN TEMP:  69; 6HR MAX TEMP:  80;


$$

INZ062-063-066-070>080-084-089>092-291900-
SOUTH CENTRAL AND SOUTHEAST INDIANA

CITY           SKY/WX    TMP DP  RH WIND       PRES   REMARKS
BLOOMINGTON    PTSUNNY   78  66  66 SW12      30.12F
6HR MIN TEMP:  70; 6HR MAX TEMP:  78;

MADISON *+     PTSUNNY   81  63  54 S10       30.16F
NORTH VERNON + MOSUNNY   81  68  65 S13       30.13F
SEYMOUR +      MOSUNNY   84  64  51 S15G22    30.11F

$$




USA.gov is the U.S. government's official web portal to all federal, state and local government web resources and services.